Showing default

MOHAMMED VI-B, 43717

Orbit data source: Space-Track

MOHAMMED VI-B, 43717 is a payload satellite owned by RMAF (MA) in SSO that was launched on Wed, 21 Nov 2018 UTC via a VEGA launch vehicle from the French Guiana (FRGUI). Payloads include a variety of satellites, spacecraft, and rockets equipped with specific instruments for various scientific and technological missions. These include communications satellites like Starlink; space stations such as the ISS; scientific satellites like the Hubble; Earth observation satellites from companies like Planet Labs, Umbra, and HawkEye 360; GPS; miniature CubeSats for education and research; and military/defense satellites.

Loading next visibility...
MOHAMMED VI-B details
Identifier
43717, 2018-095A
Orbit
SSO
Last TLE update5 hours ago
Origin
Flag of MARMAF (MA)
ManufacturerAirbus/Toulouse
MissionOperational Defense Imaging
Bus & MotorASTROSAT-1000, Unknown motor
Mass1,108 kg wet, ~900 kg dry
Launch date (UTC)
2018-11-21 (6 years ago)
Launch vehicle
VEGA
Launch site
French Guiana (FRGUI)
Object type
Payload
Rocket body
Debris
Shape & HBRHex Cyl + 3 Pan, 8 m
Radar Cross Section12.145 m², Large (>1 m²)

Expand to show TLE details & history

TLE from 5 hours ago
0 MOHAMMED VI-B
1 43717U 18095A   24339.15435317  .00002471  00000-0  35754-3 0  9996
2 43717  97.9595  48.4927 0001095  81.8307 278.3027 14.77035262325358
Epoch: 2024-12-04T03:42Z
Definitive object data (Epoch: 2024-12-04T03:42:16.113Z)
Latitude-0.00008°
Longitude-80.52801°
Altitude641.603 km
Speed7.537 km/s
True Right ascension03h 13m 58s
True Declination0° 00' 00"
Sunlit
Object was in full shadow at TLE epoch
Visualization TLE readout
Latitude61.83033°
Longitude114.74539°
Altitude648.665 km
Speed7.54 km/s
Apparent Right ascension17h 54m 32s
Apparent Declination15° 14' 14"
Sunlit
Object is in daylight
Visualization observer readout
Local Sidereal Time07:00:52
Azimuth19.109° NNE
Elevation-32.724°
Doppler factor1
Orbital elements
Apogee altitude636.514 km
Perigee altitude634.977 km
Semi-major axis7,013.883 km
Eccentricity0.0001095
Inclination97.9595°
RAAN48.4927°
Arg. of periapsis81.8307°
True anomaly278.29028°
Mean anomaly278.3027°
Eccentric anomaly278.29649°
Mean motion3.69492 °/min
BSTAR0.00035754
Orbital period97.43 mins
Loading maneuver chart data...
Loading historical data...
Loading historical data...
Loading historical data...
Loading historical data...
Loading historical data...
Loading historical data...
Loading historical data...
Other satellites on launch #95 in the year 2018 (2018-11-21 UTC)

MOHAMMED VI-B Visibility forecast

Observer location: undefined°, undefined

Span
Click to sort rows by Start time (UTC) header in descending order
Start Az.
Max El. time (UTC)
Max El. Az.
Max El.
End time (UTC)
End Az.
8 mins2024-12-04 17:16:38.824Z26.371° NE2024-12-04 17:20:38.824Z94.935° ESE35.039°2024-12-04 17:24:38.824Z170.793° S
6 mins2024-12-05 04:14:38.824Z122.585° SE2024-12-05 04:16:38.824Z81.224° E29.515°2024-12-05 04:20:38.824Z7.531° NNE
5 mins2024-12-05 05:51:38.824Z233.977° WSW2024-12-05 05:53:38.824Z268.195° W18.742°2024-12-05 05:56:38.824Z312.456° NW
|